[[{"header":{"parameterUnit":"m.s-1","parameterCategory":1,"la1":30.2991,"la2":30.254,"lo1":-89.0895,"lo2":-89.0444,"dy":0.0017,"dx":0.0017,"nx":28,"ny":28,"refTime":"2025-06-17T21:00:00:Z","depth":0,"parameterNumber":2,"parameterNumberName":"U-component_of_WINDS"},"data":[0,0,0,0,0,0,0,0,0,0,0,0,0,0,0,0,0,0,0,0,0,0,0,0,0,0,0,0,0,0,0,0,0,0,0,0,0,0,0,0,0,0,0,0,0,0,0,0,0,0,0,0,0,0,0,0,0,0,3.0502,3.0503,0,3.0596,3.0597,3.0598,3.0556,3.0553,3.0551,3.0549,3.0648,3.0653,3.0658,0,0,0,0,0,0,0,0,0,0,0,0,0,3.0286,3.029,3.0501,3.0503,3.0504,3.0595,3.0597,3.0598,3.0556,3.0553,3.055,3.0548,3.0647,3.0652,3.0658,0,0,0,0,0,0,0,0,0,0,0,0,0,3.038,3.0292,3.0501,3.0494,3.0494,3.0595,3.0597,3.0598,3.0557,3.0553,3.055,3.0546,3.0645,3.0652,3.0659,3.0773,0,0,3.0681,3.0684,0,0,0,0,0,0,0,0,3.0375,3.0388,3.0494,3.0495,3.0495,3.056,3.0557,3.0657,3.0558,3.0533,3.0549,3.0545,3.0622,3.0631,3.0656,3.0778,3.0782,3.0681,3.0686,3.0689,3.0691,0,0,0,0,0,0,0,3.0368,3.0384,3.0539,3.0495,3.0496,3.0486,3.0496,3.0576,3.0596,3.0535,3.0532,3.0544,3.0622,3.0649,3.0658,3.0784,3.0681,3.0688,3.0692,3.0695,3.1001,3.1004,0,0,0,0,0,0,3.0362,3.0379,3.0536,3.0542,3.0425,3.0493,3.0503,3.0543,3.0595,3.06,3.0547,3.0541,3.0639,3.065,3.0662,3.0796,3.0689,3.0696,3.07,3.0997,3.1001,3.1005,0,0,0,0,0,0,3.0357,3.0376,3.0532,3.0459,3.0478,3.05,3.0545,3.0547,3.0574,3.0604,3.0607,3.0571,3.0636,3.0651,3.0745,3.0799,3.0699,3.0706,3.0992,3.0998,3.1003,3.1067,0,0,0,0,0,0,3.0351,3.0375,3.0418,3.0461,3.0482,3.0614,3.0548,3.0551,3.0586,3.0581,3.0628,3.0632,3.0635,3.0734,3.0752,3.0807,3.0711,3.0988,3.0995,3.1002,3.106,3.1074,3.1086,0,0,0,0,0,3.0344,3.0434,3.0421,3.044,3.0537,3.0617,3.0629,3.0629,3.0591,3.0635,3.0653,3.0631,3.0791,3.0744,3.0764,3.0822,3.0984,3.0993,3.1001,3.1054,3.1071,3.1086,0,0,0,0,0,0,3.0399,3.044,3.0425,3.0532,3.0571,3.0609,3.0665,3.0648,3.07,3.0692,3.0691,3.0703,3.0798,3.082,3.0767,3.0933,3.0881,3.0894,3.0915,3.0932,3.0944,3.0936,3.0717,0,0,0,0,0,3.0424,3.0484,3.0517,3.0608,3.0628,3.0643,3.0678,3.0674,3.0715,3.0732,3.0757,3.0798,3.0857,3.0896,3.0953,3.1064,3.1072,3.1113,3.1126,3.1137,3.1147,3.1204,3.1221,3.1033,3.1033,3.1033,0,0,3.0475,3.0505,3.0543,3.062,3.0649,3.0711,3.0657,3.0726,3.0772,3.0743,3.083,3.0851,3.0897,3.0999,3.1045,3.102,3.1201,3.1148,3.1156,3.116,3.1214,3.1232,3.1248,3.1039,3.1038,3.1037,0,0,3.06,3.063,3.0706,3.0737,3.0782,3.0791,3.081,3.0851,3.0862,3.0951,3.0929,3.0984,3.1087,3.1119,3.1149,3.1283,3.1263,3.1302,3.1369,3.1424,3.1439,3.1452,3.1496,3.1513,3.1313,3.1313,3.1313,0,3.0658,3.075,3.0749,3.0818,3.0851,3.0826,3.0903,3.0933,3.0995,3.1018,3.099,3.1115,3.1145,3.1252,3.1284,3.1311,3.133,3.1295,3.1437,3.145,3.1462,3.1504,3.1521,3.1317,3.1317,3.1316,3.1316,0,3.0817,3.0882,3.0939,3.0996,3.1036,3.111,3.1119,3.1159,3.1153,3.1165,3.1254,3.1288,3.1349,3.1375,3.1371,3.1481,3.1463,3.1436,3.1383,3.1484,3.1523,3.154,3.1323,3.1322,3.132,3.1319,0,0,3.0978,3.1033,3.1053,3.1077,3.1125,3.1175,3.1247,3.1305,3.1338,3.1382,3.144,3.1527,3.1501,3.1535,3.1533,3.1583,3.1682,3.1549,3.155,3.1569,3.1802,3.1819,3.1838,3.167,3.1674,3.1676,3.1797,0,3.1103,3.1226,3.1226,3.134,3.1398,3.1374,3.1436,3.1472,3.1486,3.1536,3.1552,3.1611,3.1575,3.1594,3.1642,3.166,3.1728,3.1652,3.1723,3.1725,3.1708,3.1859,3.1878,3.199,3.1812,3.1815,3.1817,0,3.1264,3.131,3.1429,3.1465,3.1489,3.1545,3.1596,3.1646,3.1686,3.1692,3.1729,3.1719,3.1791,3.1739,3.1836,3.1784,3.1814,3.1827,3.1831,3.1835,3.1775,3.1863,3.2027,3.2042,3.1842,3.184,3.1838,0,3.1364,3.1457,3.1538,3.1561,3.1606,3.1645,3.1666,3.1702,3.1736,3.1782,3.1803,3.1858,3.1887,3.193,3.1935,3.1897,3.2032,3.1981,3.2037,3.2037,3.2064,3.2062,3.223,3.209,3.209,3.209,3.2089,0,3.1501,3.1573,3.1583,3.1633,3.1713,3.1713,3.1793,3.1811,3.1843,3.1895,3.1881,3.193,3.1936,3.1988,3.1993,3.2071,3.2086,3.2091,3.2091,3.209,3.2089,3.2107,3.2098,3.2094,3.2093,3.2092,3.2091,0,3.1625,3.1635,3.1721,3.1757,3.1767,3.1824,3.1854,3.1901,3.1913,3.198,3.1996,3.2014,3.2074,3.2084,3.2155,3.2158,3.225,3.2245,3.2236,3.2234,3.2288,3.2281,3.2471,3.2495,3.2343,3.2344,3.2346,0,3.1709,3.1764,3.1804,3.1837,3.1859,3.1914,3.1948,3.195,3.1986,3.2034,3.2075,3.2133,3.2178,3.2275,3.2295,3.2348,3.2341,3.2404,3.2349,3.2345,3.2337,3.2332,3.2336,3.2413,3.2415,3.2416,3.2417,0,3.1856,3.1858,3.1907,3.1957,3.1997,3.2037,3.2075,3.2103,3.211,3.2152,3.2211,3.2246,3.2317,3.2374,3.2427,3.2448,3.2433,3.2435,3.245,3.2448,3.2439,3.244,3.226,3.243,3.2428,3.2427,3.2427,3.2426,3.196,3.2006,3.2041,3.2095,3.2123,3.2158,3.2203,3.222,3.2269,3.2325,3.2325,3.2389,3.2426,3.2495,3.252,3.257,3.255,3.2573,3.2578,3.2583,3.2586,3.2434,3.2581,3.258,3.258,3.258,3.2579,0,3.2103,3.2124,3.2173,3.2225,3.2267,3.225,3.229,3.2326,3.2383,3.2418,3.2462,3.253,3.2584,3.2608,3.2661,3.2697,3.2691,3.2711,3.2706,3.271,3.2603,3.2582,3.2714,3.2714,3.2714,3.2714,3.2714,3.2714,3.2182,3.2257,3.2263,3.2352,3.2373,3.2434,3.2458,3.249,3.2517,3.2593,3.2637,3.2652,3.2682,3.2737,3.2786,3.2792,3.281,3.2832,3.2834,3.2732,3.2719,3.2705,3.2686,3.2837,3.2837,3.2937,3.2938,3.2938]},{"header":{"parameterUnit":"m.s-1","parameterCategory":1,"la1":30.2991,"la2":30.254,"lo1":-89.0895,"lo2":-89.0444,"dy":0.0017,"dx":0.0017,"nx":28,"ny":28,"refTime":"2025-06-17T21:00:00:Z","depth":0,"parameterNumber":3,"parameterNumberName":"V-component_of_WINDS"},"data":[0,0,0,0,0,0,0,0,0,0,0,0,0,0,0,0,0,0,0,0,0,0,0,0,0,0,0,0,0,0,0,0,0,0,0,0,0,0,0,0,0,0,0,0,0,0,0,0,0,0,0,0,0,0,0,0,0,0,2.3095,2.3095,0,2.3129,2.3129,2.3129,2.3088,2.3087,2.3085,2.3084,2.312,2.3122,2.3125,0,0,0,0,0,0,0,0,0,0,0,0,0,2.2996,2.2998,2.3095,2.3095,2.3096,2.3129,2.3129,2.3129,2.3089,2.3087,2.3085,2.3083,2.3119,2.3122,2.3125,0,0,0,0,0,0,0,0,0,0,0,0,0,2.3036,2.2999,2.3095,2.3079,2.3078,2.3128,2.3129,2.313,2.3089,2.3087,2.3085,2.3082,2.3118,2.3122,2.3125,2.3193,0,0,2.3136,2.3138,0,0,0,0,0,0,0,0,2.3033,2.3039,2.3081,2.3081,2.308,2.3102,2.3107,2.3151,2.309,2.3085,2.3084,2.3081,2.3116,2.312,2.3131,2.3195,2.3196,2.3137,2.3139,2.314,2.3141,0,0,0,0,0,0,0,2.3031,2.3038,2.3108,2.3082,2.3081,2.3071,2.3074,2.3115,2.3113,2.3085,2.3082,2.3087,2.3115,2.3128,2.3132,2.3197,2.3137,2.314,2.3142,2.3143,2.3315,2.3317,0,0,0,0,0,0,2.303,2.3036,2.3107,2.3109,2.305,2.3075,2.3078,2.3097,2.3112,2.3113,2.3089,2.3085,2.3123,2.3127,2.3133,2.3211,2.314,2.3144,2.3146,2.3313,2.3316,2.3318,0,0,0,0,0,0,2.3028,2.3036,2.3106,2.3072,2.308,2.3079,2.3101,2.3099,2.3111,2.3115,2.3114,2.3102,2.3121,2.3128,2.3178,2.3212,2.3145,2.3148,2.331,2.3313,2.3317,2.3369,0,0,0,0,0,0,2.3025,2.3036,2.3062,2.3073,2.3082,2.315,2.3103,2.3101,2.3117,2.3113,2.3127,2.3127,2.312,2.3172,2.3181,2.3215,2.3151,2.3307,2.3311,2.3316,2.3364,2.3374,2.3382,0,0,0,0,0,2.3022,2.3076,2.3063,2.3072,2.3114,2.3152,2.3158,2.3147,2.312,2.3146,2.3148,2.3127,2.3207,2.3178,2.3187,2.3223,2.3304,2.331,2.3315,2.336,2.3372,2.3382,0,0,0,0,0,0,2.307,2.3077,2.3063,2.3122,2.3137,2.3145,2.3177,2.3161,2.3184,2.3178,2.3165,2.3168,2.3221,2.3227,2.3195,2.3288,2.3251,2.3259,2.3282,2.3293,2.3302,2.3299,2.3154,0,0,0,0,0,2.3087,2.3118,2.3123,2.3174,2.3182,2.3179,2.3195,2.3186,2.3201,2.3207,2.3213,2.3228,2.3256,2.3275,2.3302,2.3365,2.3367,2.3394,2.3403,2.3411,2.3417,2.3449,2.346,2.3336,2.3336,2.3336,0,0,2.3124,2.3132,2.3152,2.3184,2.3194,2.3226,2.3184,2.322,2.3243,2.3212,2.3259,2.3264,2.328,2.3337,2.3362,2.3343,2.3452,2.3418,2.3423,2.3426,2.3456,2.3467,2.3478,2.334,2.3339,2.3338,0,0,2.3206,2.3216,2.3258,2.3269,2.3285,2.3282,2.3292,2.3303,2.3304,2.3351,2.3328,2.3356,2.3405,2.3417,2.343,2.3515,2.3496,2.3524,2.3571,2.3602,2.3612,2.3621,2.3649,2.366,2.3531,2.3531,2.3531,0,2.325,2.3296,2.3283,2.332,2.3334,2.3307,2.335,2.3361,2.3385,2.3395,2.3375,2.3435,2.3444,2.3502,2.3522,2.3534,2.3545,2.3522,2.3612,2.362,2.3628,2.3655,2.3666,2.3534,2.3534,2.3534,2.3533,0,2.3347,2.338,2.3413,2.3435,2.3453,2.3493,2.3486,2.3506,2.3495,2.3494,2.3541,2.3551,2.3578,2.3592,2.3582,2.3648,2.3635,2.3614,2.3576,2.3643,2.3668,2.3679,2.3539,2.3538,2.3537,2.3536,0,0,2.3461,2.3474,2.3486,2.3495,2.351,2.3534,2.3573,2.3598,2.3615,2.3632,2.3663,2.3705,2.3684,2.3699,2.369,2.3718,2.3782,2.3692,2.3692,2.3707,2.3853,2.3868,2.388,2.377,2.3772,2.3773,2.3851,0,2.3541,2.3606,2.3595,2.3658,2.3687,2.3661,2.3695,2.3707,2.3707,2.3732,2.3732,2.3761,2.3733,2.3741,2.3767,2.3769,2.3811,2.3763,2.3798,2.3799,2.3793,2.3894,2.391,2.3983,2.3861,2.3862,2.3864,0,2.3644,2.3663,2.3728,2.3737,2.3748,2.3778,2.38,2.3824,2.3837,2.3835,2.3851,2.3836,2.3874,2.3837,2.3888,2.3856,2.3869,2.3872,2.3875,2.3876,2.3834,2.3896,2.4006,2.4016,2.3879,2.3878,2.3877,0,2.3717,2.376,2.3804,2.3813,2.3824,2.3845,2.3851,2.3862,2.3877,2.3897,2.3906,2.393,2.3943,2.3962,2.3954,2.3928,2.4006,2.3968,2.4005,2.4005,2.4021,2.402,2.4132,2.4033,2.4033,2.4033,2.4032,0,2.3807,2.3848,2.3836,2.3864,2.3908,2.3895,2.394,2.3943,2.3953,2.3979,2.396,2.3985,2.3974,2.3999,2.3994,2.4036,2.4043,2.4041,2.4039,2.4042,2.4042,2.405,2.4044,2.4036,2.4035,2.4034,2.4034,0,2.3896,2.389,2.3936,2.3943,2.3945,2.3977,2.3983,2.4008,2.4006,2.4041,2.4048,2.4046,2.4074,2.4068,2.41,2.4096,2.4148,2.4141,2.4143,2.4141,2.4177,2.4173,2.4297,2.4312,2.4204,2.4205,2.4206,0,2.3953,2.3983,2.3992,2.4008,2.4015,2.4042,2.4057,2.4046,2.4062,2.4079,2.4102,2.4128,2.4148,2.4194,2.4196,2.4219,2.4211,2.4253,2.4214,2.4216,2.4209,2.4207,2.4209,2.426,2.4261,2.4262,2.4263,0,2.4053,2.4048,2.4071,2.4092,2.411,2.4126,2.4141,2.4155,2.4145,2.4165,2.4193,2.4208,2.424,2.4265,2.4287,2.4293,2.4276,2.4275,2.4285,2.4287,2.4286,2.4285,2.4162,2.4272,2.4271,2.4271,2.427,2.427,2.4126,2.4151,2.4161,2.4186,2.4195,2.4209,2.4232,2.4233,2.4256,2.4279,2.4272,2.4303,2.4315,2.4342,2.4351,2.4375,2.4359,2.4373,2.4377,2.438,2.4383,2.4284,2.4379,2.4379,2.4379,2.4379,2.4378,0,2.4224,2.4229,2.4252,2.4271,2.4291,2.4273,2.4288,2.4305,2.4333,2.4345,2.4365,2.4396,2.4421,2.4424,2.4447,2.4466,2.4458,2.4472,2.447,2.4471,2.4397,2.4385,2.4478,2.4477,2.4477,2.4477,2.4477,2.4477,2.4277,2.4317,2.4314,2.4358,2.4363,2.4393,2.4402,2.4415,2.4424,2.4459,2.4479,2.4481,2.4489,2.4512,2.4534,2.4534,2.4543,2.4559,2.4556,2.4487,2.4477,2.4467,2.4456,2.4562,2.4562,2.4628,2.4629,2.4629]}]]